Hourly Data Report for October 11, 2014

All times are specified in Local Standard Time (LST). Add 1 hour to adjust for Daylight Saving Time where and when it is observed.

GRISE FIORD CLIMATE
NUNAVUT

76°25'22.040" N
82°54'08.020" W
44.50 m
2402351
71971
NGC

Download Data

Hourly Data (October 2014)
Hourly Data Report for October 11, 2014
Temp Definition
°C
Dew Point Temp Definition
°C
Rel Hum Definition
%
Wind Dir Definition
10's deg

Wind Spd Definition
km/h
Visibility Definition
km
Stn Press Definition
kPa
Hmdx Definition


Wind Chill Definition


Weather Definition


TIME
00:00 -5.6 -9.6 73 14 4   100.92   -7 LegendNANA
01:00 -5.4 -6.8 90 5 5   100.87   -8 LegendNANA
02:00 -5.3 -5.9 96 8 3   100.78   -7 LegendNANA
03:00 -4.6 -4.9 98 7 2   100.69   -5 LegendNANA
04:00 -3.2 -4.1 94 14 6   100.62   -6 LegendNANA
05:00 -2.1 -3.8 88 13 5   100.58   -4 LegendNANA
06:00 0.4 -3.0 78 9 9   100.54     LegendNANA
07:00 1.5 -3.7 69 8 15   100.51     LegendNANA
08:00 0.5 -3.4 75 11 10   100.48     LegendNANA
09:00 0.5 -3.0 78 16 4   100.45     LegendNANA
10:00 -0.3 -2.0 88 15 6   100.45   -2 LegendNANA
11:00 -1.0 -1.1 99 15 6   100.43   -3 LegendNANA
12:00 3.1 -0.7 76 5 9   100.39     LegendNANA
13:00 2.3 -1.0 79 35 2   100.41     LegendNANA
14:00 4.0 0.1 76 7 9   100.38     LegendNANA
15:00 4.9 0.5 73 10 11   100.39     LegendNANA
16:00 5.1 0.5 72 9 32   100.36     LegendNANA
17:00 5.9 1.0 71 12 20   100.44     LegendNANA
18:00 5.5 0.2 69 6 14   100.42     LegendNANA
19:00 5.2 0.9 74 10 8   100.45     LegendNANA
20:00 0.9 -0.5 91 14 13   100.48     LegendNANA
21:00 0.1 -0.8 93 14 6   100.48     LegendNANA
22:00 1.5 -0.2 88 4 2   100.50     LegendNANA
23:00 -0.8 -1.3 96 22 5   100.55   -2 LegendNANA

Notes on Data Quality.

Legend

  • E = Estimated
  • M = Missing
  • NA = Not Available
  • ‡ = Partner data that is not subject to review by the National Climate Archives
Date modified: